Location: Lawrence Hall of Science
(37.8785°N, 122.2415°W)
Time: 09:26:13
(UTC-07:00)

Cosmos 2151 - Visible Passes

Search period start: 23 May 2015 00:00
Search period end: 02 June 2015 00:00
Orbit: 585 x 603 km, 82.5° (Epoch: 22 May)

Date Brightness Start Highest point End Pass type
(mag) Time Alt. Az. Time Alt. Az. Time Alt. Az.
23 May 4.7 01:41:15 31° NNE 01:41:15 31° NNE 01:43:35 10° NNE visible
24 May 4.6 01:50:43 33° N 01:50:43 33° N 01:53:10 10° N visible
25 May 4.7 02:00:10 30° NNW 02:00:10 30° NNW 02:02:36 10° N visible
26 May 5.5 00:32:58 14° NE 00:32:58 14° NE 00:33:58 10° NE visible
26 May 4.9 02:09:36 23° NW 02:09:36 23° NW 02:11:51 10° NNW visible
27 May 5.2 00:42:24 20° NE 00:42:24 20° NE 00:44:06 10° NNE visible
27 May 5.2 02:19:01 17° NW 02:19:01 17° NW 02:20:52 10° NNW visible
28 May 4.9 00:51:48 27° NE 00:51:48 27° NE 00:53:57 10° NNE visible
28 May 5.6 02:28:26 12° WNW 02:28:26 12° WNW 02:29:22 10° NW visible
29 May 4.6 01:01:12 33° NNE 01:01:12 33° NNE 01:03:37 10° N visible
30 May 4.5 01:10:35 34° N 01:10:35 34° N 01:13:08 10° N visible
30 May 5.6 23:43:20 11° ENE 23:43:20 11° ENE 23:43:47 10° NE visible
31 May 4.7 01:19:57 29° NNW 01:19:57 29° NNW 01:22:31 10° N visible
31 May 5.2 23:52:41 17° NE 23:52:41 17° NE 23:54:13 10° NE visible
01 Jun 5.0 01:29:19 22° NW 01:29:19 22° NW 01:31:41 10° NNW visible
